(222209) = 2000 EL49

Discovered at Socorro on 2000-03-09 by LINEAR.

Orbit

Orbit type: Main Belt

Note: WebGL enabled browser required.

epoch2024-03-31.0
epoch JD2460400.5
perihelion date2022-08-18.97688
perihelion JD2459810.47688
argument of perihelion (°)94.84353
ascending node (°)24.14536
inclination (°)16.70049
eccentricity0.1987922
perihelion distance (AU)2.5663921
Tisserand w.r.t. Jupiter3.1
ΔV w.r.t. Earth (km/sec)11.2
semimajor axis (AU)3.2031541
mean anomaly (°)101.43927
mean daily motion (°/day)0.17192420
aphelion distance (AU)3.840
period (years)5.73
P-vector [x]-0.46744779
P-vector [y]0.65344613
P-vector [z]0.59539963
Q-vector [x]-0.87617052
Q-vector [y]-0.43201518
Q-vector [z]-0.21374774
absolute magnitude15.36
phase slope0.15
uncertainty0
referenceMPEC 2024-C37
observations used590
oppositions13
arc length (days)8495
first opposition used2000
last opposition used2023
residual rms (arc-secs)0.68
perturbers coarse indicatorM-v
perturbers precise indicator003Ek
first observation date used2000-03-05.0
last observation date used2023-06-08.0
computer nameMPCLINUX
JD of orbit computation2456937.316517
perihelion JD uncertainty (days)2.3000E-04
argument of perihelion uncertainty (°)4.0491E-05
ascending node uncertainty (°)2.3611E-05
inclination uncertainty (°)1.1023E-05
eccentricity uncertainty 6.6315E-08
perihelion distance uncertainty (AU)2.2273E-07
Minimum Orbit Intersection Distances (in AU)
for orbit epoch: 2460200.5, reference: E2024-C37
Mercury2.24506
Venus1.87857
Earth1.64658
Mars1.04874
Jupiter1.56375
Saturn6.11231
Uranus15.5425
Neptune26.4136

Observations

608 total observations over interval: 2000 03 05.30928 – 2023 06 08.185666
These data are available for download (format description).

Date (UT) J2000 RA J2000 Dec Magn Location Ref
2000 03 05.30928 12 05 11.48 +15 19 06.9 18.8   704 – Lincoln Laboratory ETS, New Mexico MPS 12355
2000 03 05.32249 12 05 10.77 +15 19 08.2 19.5   704 – Lincoln Laboratory ETS, New Mexico MPS 12355
2000 03 05.33572 12 05 10.00 +15 19 09.4 19.3   704 – Lincoln Laboratory ETS, New Mexico MPS 12355
2000 03 05.34894 12 05 09.10 +15 19 11.3 19.9   704 – Lincoln Laboratory ETS, New Mexico MPS 12355
2000 03 09.36010 12 01 28.71 +15 24 42.1 18.6   704 – Lincoln Laboratory ETS, New Mexico MPS 11428
2000 03 09.38577 12 01 27.18 +15 24 43.8 19.3   704 – Lincoln Laboratory ETS, New Mexico MPS 11428
2000 03 09.39861 12 01 26.56 +15 24 45.6 18.5   704 – Lincoln Laboratory ETS, New Mexico MPS 11428
2000 03 09.41152 12 01 25.84 +15 24 46.9 19.2   704 – Lincoln Laboratory ETS, New Mexico MPS 11428
2000 03 10.39385 12 00 30.60 +15 25 49.8 16.2   704 – Lincoln Laboratory ETS, New Mexico MPS 11428
2000 03 10.40822 12 00 29.90 +15 25 49.8 16.6   704 – Lincoln Laboratory ETS, New Mexico MPS 11428
2000 03 10.42181 12 00 29.12 +15 25 51.1 16.3   704 – Lincoln Laboratory ETS, New Mexico MPS 11428
2000 03 12.40216 11 58 36.89 +15 27 38.7 18.9   704 – Lincoln Laboratory ETS, New Mexico MPS 11428
2000 03 12.42758 11 58 35.34 +15 27 39.2 19.5   704 – Lincoln Laboratory ETS, New Mexico MPS 11428
2000 03 12.44065 11 58 34.48 +15 27 41.6 19.3   704 – Lincoln Laboratory ETS, New Mexico MPS 11428
2000 03 12.45334 11 58 33.71 +15 27 41.6 19.0   704 – Lincoln Laboratory ETS, New Mexico MPS 11428
2000 03 26.25538 11 45 34.53 +15 24 30.4 19.0 R 699 – Lowell Observatory-LONEOS MPS 12355
2000 03 26.27676 11 45 33.34 +15 24 28.9   699 – Lowell Observatory-LONEOS MPS 12355
2000 03 26.29819 11 45 32.04 +15 24 26.5   699 – Lowell Observatory-LONEOS MPS 12355
2000 03 26.31965 11 45 30.95 +15 24 24.7   699 – Lowell Observatory-LONEOS MPS 12355
2003 09 19.32178 00 09 02.37 -11 24 14.5 19.6 R 699 – Lowell Observatory-LONEOS MPS 172708
2003 09 19.33506 00 09 01.58 -11 24 18.6   699 – Lowell Observatory-LONEOS MPS 172708
2003 09 19.34832 00 09 00.98 -11 24 20.3   699 – Lowell Observatory-LONEOS MPS 172708
2003 09 19.36158 00 09 00.33 -11 24 21.1   699 – Lowell Observatory-LONEOS MPS 172708
2006 03 24.24091 13 10 50.90 -01 25 00.3 20.1 V 691 – Steward Observatory, Kitt Peak-Spacewatch MPS 172708
2006 03 24.25817 13 10 49.98 -01 24 59.8 20.1 V 691 – Steward Observatory, Kitt Peak-Spacewatch MPS 172708
2006 03 24.27535 13 10 49.05 -01 24 59.2 19.9 V 691 – Steward Observatory, Kitt Peak-Spacewatch MPS 172708
2006 04 08.16960 12 57 15.45 -01 19 08.7   691 – Steward Observatory, Kitt Peak-Spacewatch MPS 172708
2006 04 08.18700 12 57 14.52 -01 19 08.5   691 – Steward Observatory, Kitt Peak-Spacewatch MPS 172708
2006 04 08.20438 12 57 13.53 -01 19 08.6   691 – Steward Observatory, Kitt Peak-Spacewatch MPS 172708
2006 04 20.30102 12 46 39.46 -01 21 47.8 19.7 V 703 – Catalina Sky Survey MPS 172708
2006 04 20.30796 12 46 39.10 -01 21 49.7 19.6 V 703 – Catalina Sky Survey MPS 172708
2006 04 20.31492 12 46 38.74 -01 21 48.7 20.0 V 703 – Catalina Sky Survey MPS 172708
2006 04 20.32191 12 46 38.31 -01 21 48.2 19.4 V 703 – Catalina Sky Survey MPS 172708
2006 04 25.14320 12 42 54.09 -01 25 50.6   691 – Steward Observatory, Kitt Peak-Spacewatch MPS 172709
2006 04 25.16395 12 42 53.14 -01 25 51.7   691 – Steward Observatory, Kitt Peak-Spacewatch MPS 172709
2006 04 25.18469 12 42 52.20 -01 25 53.1   691 – Steward Observatory, Kitt Peak-Spacewatch MPS 172709
2006 05 24.23750 12 29 46.17 -02 35 55.2 20.5 V G96 – Mt. Lemmon Survey MPS 173551
2006 05 24.24363 12 29 46.14 -02 35 56.6 20.5 V G96 – Mt. Lemmon Survey MPS 173551
2006 05 24.24982 12 29 46.06 -02 35 58.2 20.5 V G96 – Mt. Lemmon Survey MPS 173551
2006 05 24.25610 12 29 45.99 -02 35 59.3 20.4 V G96 – Mt. Lemmon Survey MPS 173551
2009 09 24.37879 00 59 06.68 -00 26 06.5 20.0 V G96 – Mt. Lemmon Survey MPS 295719
2009 09 24.38720 00 59 06.25 -00 26 07.2 19.4 V G96 – Mt. Lemmon Survey MPS 295719
2009 09 24.39573 00 59 05.82 -00 26 07.9 19.9 V G96 – Mt. Lemmon Survey MPS 295719
2009 09 24.40441 00 59 05.38 -00 26 08.9 20.1 V G96 – Mt. Lemmon Survey MPS 295719
2009 09 28.18537 00 55 58.23 -00 31 57.6 20.1 V 691 – Steward Observatory, Kitt Peak-Spacewatch MPS 296825
2009 09 28.20298 00 55 57.34 -00 31 59.5 20.3 V 691 – Steward Observatory, Kitt Peak-Spacewatch MPS 296825
2009 09 28.22061 00 55 56.42 -00 32 01.1 20.0 V 691 – Steward Observatory, Kitt Peak-Spacewatch MPS 296825
2009 10 17.19530 00 39 33.98 -00 54 06.9 20.0 V G96 – Mt. Lemmon Survey MPS 299272
2009 10 17.20267 00 39 33.58 -00 54 07.4 20.0 V G96 – Mt. Lemmon Survey MPS 299272
2009 10 17.21009 00 39 33.22 -00 54 07.5 20.0 V G96 – Mt. Lemmon Survey MPS 299272
2009 10 17.21755 00 39 32.86 -00 54 07.8 19.9 V G96 – Mt. Lemmon Survey MPS 299272
2009 10 26.20675 00 32 24.72 -00 56 06.8 20.2 V G96 – Mt. Lemmon Survey MPS 300538
2009 10 26.21425 00 32 24.36 -00 56 06.9 19.9 V G96 – Mt. Lemmon Survey MPS 300538
2009 10 26.22168 00 32 24.00 -00 56 06.9 20.5 V G96 – Mt. Lemmon Survey MPS 300538
2009 10 26.22915 00 32 23.67 -00 56 06.7 19.9 V G96 – Mt. Lemmon Survey MPS 300538
2009 11 05.04511 00 25 53.01 -00 49 03.6 19.3 J W91 – VHS-VISTA, Cerro Paranal MPS 678139
2009 11 05.04753 00 25 52.92 -00 49 03.4 19.4 J W91 – VHS-VISTA, Cerro Paranal MPS 678139
2009 11 05.04995 00 25 52.82 -00 49 03.2 19.1 J W91 – VHS-VISTA, Cerro Paranal MPS 678139
2009 11 05.05504 00 25 52.63 -00 49 02.9 18.5 H W91 – VHS-VISTA, Cerro Paranal MPS 678139
2009 11 05.06262 00 25 52.36 -00 49 02.2 18.5 K W91 – VHS-VISTA, Cerro Paranal MPS 678139
2010 01 12.07481 00 33 30.24 +04 37 20.4 21.6 V G96 – Mt. Lemmon Survey MPS 311113
2010 01 12.08052 00 33 30.49 +04 37 23.3 21.5 V G96 – Mt. Lemmon Survey MPS 311113
2010 01 12.08623 00 33 30.70 +04 37 25.5 20.4 V G96 – Mt. Lemmon Survey MPS 311113
2010 01 12.09197 00 33 30.96 +04 37 27.8 22.3 V G96 – Mt. Lemmon Survey MPS 311113
2010 01 12.09765 00 33 31.21 +04 37 30.6 21.2 V G96 – Mt. Lemmon Survey MPS 311113
2010 01 12.11395 00 33 31.96 +04 37 39.3 20.4 V G96 – Mt. Lemmon Survey MPS 311113
2010 01 12.12542 00 33 32.40 +04 37 43.3 21.6 V G96 – Mt. Lemmon Survey MPS 311113
2010 01 12.13116 00 33 32.65 +04 37 46.3 21.1 V G96 – Mt. Lemmon Survey MPS 311113
2010 01 12.13687 00 33 32.90 +04 37 48.9 20.6 V G96 – Mt. Lemmon Survey MPS 311113
2011 01 08.31200 07 38 32.10 +48 09 46.9 19.4 V 703 – Catalina Sky Survey MPS 366694
2011 01 08.31856 07 38 31.70 +48 09 48.6 19.0 V 703 – Catalina Sky Survey MPS 366694
2011 01 08.32510 07 38 31.12 +48 09 49.8 18.9 V 703 – Catalina Sky Survey MPS 366694
2011 01 08.33167 07 38 30.80 +48 09 51.0 19.1 V 703 – Catalina Sky Survey MPS 366694
2011 01 30.25094 07 14 22.59 +48 06 31.8 19.1 V 703 – Catalina Sky Survey MPS 369355
2011 01 30.26141 07 14 22.02 +48 06 29.9 18.9 V 703 – Catalina Sky Survey MPS 369355
2011 01 30.26651 07 14 21.73 +48 06 29.0 18.9 V 703 – Catalina Sky Survey MPS 369355
2011 05 28.17008 08 43 58.00 +31 19 11.6 21.0 V G96 – Mt. Lemmon Survey MPS 384582
2011 05 28.17537 08 43 58.47 +31 19 08.1 21.1 V G96 – Mt. Lemmon Survey MPS 384582
2011 05 28.18059 08 43 59.01 +31 19 04.8 20.9 V G96 – Mt. Lemmon Survey MPS 384582
2011 05 28.18590 08 43 59.52 +31 19 01.5 20.7 V G96 – Mt. Lemmon Survey MPS 384582
2012 03 15.43151 14 31 15.83 -16 04 33.0 20.5 V 691 – Steward Observatory, Kitt Peak-Spacewatch MPS 417046
2012 03 15.44929 14 31 15.34 -16 04 36.3 20.5 V 691 – Steward Observatory, Kitt Peak-Spacewatch MPS 417046
2012 03 15.46706 14 31 14.88 -16 04 39.2 20.5 V 691 – Steward Observatory, Kitt Peak-Spacewatch MPS 417046
2012 03 24.35905 14 26 40.76 -16 25 58.9 20.2 V 691 – Steward Observatory, Kitt Peak-Spacewatch MPS 420035
2012 03 24.37682 14 26 40.09 -16 26 01.2 20.3 V 691 – Steward Observatory, Kitt Peak-Spacewatch MPS 420035
2012 03 24.39459 14 26 39.39 -16 26 03.0 20.2 V 691 – Steward Observatory, Kitt Peak-Spacewatch MPS 420035
2012 04 13.33853 14 11 06.25 -16 48 59.2 19.5 V G96 – Mt. Lemmon Survey MPS 421683
2012 04 13.34201 14 11 06.07 -16 48 59.3 19.5 V G96 – Mt. Lemmon Survey MPS 421683
2012 04 13.34545 14 11 05.89 -16 48 58.9 19.4 V G96 – Mt. Lemmon Survey MPS 421683
2012 04 13.34894 14 11 05.71 -16 48 59.3 19.5 V G96 – Mt. Lemmon Survey MPS 421683
